Marietta, GA

9:51 AM EDT on October 19, 2017 (GMT -0400)
Dobbins Air Force Base

Weather History for KMGE - September, 2013

Change the Weather History Date:

Saturday, September 7, 2013

  Actual Average Record
Temperature  
Mean Temperature 76 °F -  
Max Temperature 86 °F 82 °F 93 °F (1999)
Min Temperature 66 °F 64 °F 52 °F (2017)
Cooling Degree Days 10    
Growing Degree Days 26 (Base 50)    
Moisture  
Dew Point 66 °F    
Average Humidity 78    
Maximum Humidity 100    
Minimum Humidity 48    
Precipitation  
Precipitation 0.00 in - - ()
Sea Level Pressure  
Sea Level Pressure 30.09 in    
Wind  
Wind Speed 2 mph (NNE)    
Max Wind Speed 6 mph    
Max Gust Speed -    
Visibility 10 miles    
Events      
Averages and records for this station are not official NWS values.
T = Trace of Precipitation, MM = Missing Value Source: NWS Daily Summary

Daily Weather History Graph

Daily Weather History Graph

Search for Another Location

Airport or City:

Trip Planner

Search our weather history database for the weather conditions in past years. The results will help you decide how hot, cold, wet, or windy it might be!

Date:

Astronomy

Sep. 07, 2013 Rise Set
Actual Time 7:16 AM EDT 7:55 PM EDT
Civil Twilight 6:50 AM EDT 8:20 PM EDT
Nautical Twilight 6:21 AM EDT 8:50 PM EDT
Astronomical Twilight 5:50 AM EDT 9:20 PM EDT
Moon 9:20 AM EDT (9/7) 9:03 PM EDT (9/7)
Length of Visible Light 13h 29m
Length of Day
12h 39m
Waxing Crescent, 5% of the Moon is Illuminated
Sep 7
Waxing Crescent
Sep 12
First Quarter
Sep 19
Full
Sep 26
Last Quarter
Oct 4
New

Hourly Weather History & Observations

Time (EDT) Temp. Heat Index Dew Point Humidity Pressure Visibility Wind Dir Wind Speed Gust Speed Precip Events Conditions
12:58 AM 71.4 °F - 67.8 °F 88% 30.10 in 10.0 mi NE 1.2 mph - N/A   Clear
1:58 AM 70.0 °F - 67.6 °F 92% 30.10 in 10.0 mi NE 2.3 mph - N/A   Clear
2:58 AM 69.3 °F - 67.3 °F 93% 30.09 in 10.0 mi NE 1.2 mph - N/A   Clear
3:48 AM 68.0 °F - 66.2 °F 94% 30.11 in 8.0 mi Calm Calm - N/A   Clear
3:58 AM 67.5 °F - 66.6 °F 97% 30.09 in 10.0 mi NE 2.3 mph - N/A   Clear
4:58 AM 67.8 °F - 66.4 °F 95% 30.09 in 10.0 mi NE 2.3 mph - N/A   Clear
5:58 AM 66.9 °F - 66.0 °F 97% 30.10 in 10.0 mi Calm Calm - N/A   Clear
6:36 AM 66.2 °F - 66.2 °F 100% 30.12 in 10.0 mi ESE 1.2 mph - N/A   Light Drizzle
6:45 AM 66.2 °F - 66.2 °F 100% 30.13 in 10.0 mi Calm Calm - N/A   Clear
6:58 AM 66.2 °F - 65.5 °F 98% 30.11 in 10.0 mi Calm Calm - N/A   Partly Cloudy
7:58 AM 66.9 °F - 65.5 °F 95% 30.12 in 10.0 mi Calm Calm - N/A   Partly Cloudy
8:58 AM 69.6 °F - 66.2 °F 89% 30.13 in 10.0 mi Variable 2.3 mph - N/A   Clear
9:58 AM 73.8 °F - 66.9 °F 79% 30.13 in 10.0 mi East 2.3 mph - N/A   Scattered Clouds
10:58 AM 77.4 °F - 66.9 °F 70% 30.14 in 10.0 mi SE 3.5 mph - N/A   Scattered Clouds
11:58 AM 80.4 °F 82.6 °F 66.4 °F 62% 30.14 in 10.0 mi NNW 1.2 mph - N/A   Mostly Cloudy
12:58 PM 81.9 °F 83.7 °F 65.1 °F 57% 30.12 in 10.0 mi East 4.6 mph - N/A   Mostly Cloudy
1:58 PM 82.6 °F 84.3 °F 64.9 °F 55% 30.11 in 10.0 mi East 4.6 mph - N/A   Mostly Cloudy
2:58 PM 84.6 °F 86.1 °F 64.4 °F 51% 30.09 in 10.0 mi Variable 2.3 mph - N/A   Mostly Cloudy
3:58 PM 83.5 °F 84.9 °F 64.4 °F 52% 30.06 in 10.0 mi NE 3.5 mph - N/A   Mostly Cloudy
4:58 PM 84.7 °F 85.6 °F 63.0 °F 48% 30.04 in 10.0 mi Variable 2.3 mph - N/A   Partly Cloudy
5:58 PM 85.6 °F 87.1 °F 64.2 °F 49% 30.03 in 10.0 mi West 2.3 mph - N/A   Partly Cloudy
6:58 PM 85.3 °F 86.6 °F 64.2 °F 49% 30.01 in 10.0 mi WNW 5.8 mph - N/A   Partly Cloudy
7:58 PM 80.6 °F 82.5 °F 65.5 °F 60% 30.03 in 10.0 mi WNW 5.8 mph - N/A   Partly Cloudy
8:58 PM 75.6 °F - 66.4 °F 73% 30.04 in 10.0 mi NW 2.3 mph - N/A   Partly Cloudy
9:58 PM 73.0 °F - 67.6 °F 83% 30.05 in 10.0 mi West 3.5 mph - N/A   Clear
10:58 PM 71.4 °F - 67.5 °F 87% 30.05 in 10.0 mi West 4.6 mph - N/A   Clear
11:58 PM 70.9 °F - 67.3 °F 88% 30.04 in 10.0 mi West 4.6 mph - N/A   Clear